Wind_Speed
16 14 17 15 11 13 14 3 9 12 6 5 10 3 15 14 10 13 14 15 16 16 16 24 21 24 19 23 25 24 19 21 18 14 14 16 17 17 16 15 11 10 11 14
17 18 20 19 1 5 16 9 2 8 12 7 4 7 23 12 13 12 12 16 17 16 18 20 22 26 24 27 26 24 21 17 20 17 17 16 13 11 7 12 14 13 15 15
18 20 23 13 14 8 17 11 9 8 13 7 4 9 20 25 17 12 15 14 18 19 19 18 19 23 24 26 28 26 26 20 22 18 16 14 18 16 10 8 12 12 16 19
18 20 20 14 17 7 19 7 10 11 8 4 21 6 11 18 24 13 15 16 15 18 17 17 19 21 24 21 27 24 22 23 19 19 18 17 13 12 14 18 8 6 9 12
17 18 17 18 21 6 17 11 7 15 11 4 8 5 5 12 25 18 17 19 16 17 17 20 19 23 24 24 25 28 27 23 21 21 21 15 13 12 14 3 4 4 10 10
19 19 16 19 23 12 18 10 16 18 16 6 10 7 4 6 15 15 17 17 17 19 18 20 23 26 23 24 24 25 29 28 24 18 20 20 9 11 3 2 2 6 5 5
19 19 18 16 17 18 15 14 11 15 5 5 13 2 11 20 22 26 11 16 18 16 15 17 15 18 22 22 23 22 28 23 20 17 14 12 10 5 4 3 6 1 2 5
16 15 21 17 18 17 17 16 11 7 5 14 10 2 7 24 19 11 11 7 6 14 15 15 16 14 16 18 24 21 28 21 16 14 13 12 11 8 8 7 5 3 3 4
15 18 13 20 20 14 19 18 14 19 19 7 4 5 4 23 20 21 11 8 6 5 12 12 11 14 14 15 17 20 26 19 16 14 13 13 10 8 5 5 4 3 3 4
20 16 15 13 15 16 19 18 13 10 13 14 10 7 10 20 9 24 17 11 10 9 7 11 9 13 14 15 16 15 23 16 15 18 15 13 13 9 7 5 2 4 2 2
17 17 18 13 10 15 12 15 18 15 1 5 7 9 13 13 16 10 15 14 12 12 10 10 8 11 14 11 14 17 18 18 18 20 16 16 15 11 9 7 4 6 6 6
17 10 15 19 12 15 18 16 18 11 12 9 8 8 13 16 15 6 12 13 14 13 12 12 10 11 12 13 14 19 19 19 18 20 18 15 13 12 11 8 10 8 8 5
14 11 13 18 15 14 15 18 14 16 17 16 5 5 19 7 8 1 14 12 10 11 10 11 12 10 10 15 19 21 21 19 19 20 17 14 14 13 13 11 10 9 7 5
9 15 13 14 14 14 19 19 17 20 15 16 5 5 12 7 6 7 12 13 12 10 10 9 10 9 11 15 18 18 20 19 19 18 17 16 14 14 13 12 11 9 7 6
12 17 17 19 20 19 15 15 19 20 20 19 8 6 10 2 10 9 15 14 14 13 13 12 12 11 13 16 18 19 19 20 20 19 18 14 15 13 14 12 10 7 7 6
15 16 16 18 20 20 19 17 17 19 20 21 19 14 14 18 17 11 15 16 13 14 14 13 12 12 14 17 19 20 21 21 20 19 18 16 16 15 10 9 9 7 5 4
7 13 15 17 19 20 17 17 19 16 18 19 17 15 11 3 4 8 12 16 17 16 16 15 16 14 18 21 21 22 22 22 21 19 20 17 14 13 11 9 7 6 6 6
6 19 14 14 16 18 15 18 20 16 18 18 20 6 7 5 9 12 4 2 12 16 17 15 15 18 20 23 24 23 22 20 21 20 19 17 15 12 9 7 7 7 6 5
18 16 11 13 13 13 19 11 14 14 15 13 10 3 4 5 9 6 13 9 11 16 14 15 19 22 22 24 23 23 22 20 19 18 18 17 14 12 9 8 7 6 5 5
20 17 13 9 16 18 9 23 14 10 12 6 9 13 10 7 4 9 13 9 8 7 16 18 23 23 24 24 26 23 21 20 18 19 18 16 13 11 9 8 6 5 5 3
12 13 16 6 6 8 10 22 21 14 6 9 12 11 9 7 6 8 8 9 6 13 15 24 24 23 25 26 25 22 21 20 20 20 19 16 13 9 11 9 6 6 4 7
6 8 7 10 12 7 19 9 7 8 20 13 8 9 7 4 4 7 8 9 7 5 12 22 19 21 27 29 25 20 18 18 23 24 20 15 12 11 10 11 9 5 3 3
4 5 7 4 4 12 17 3 9 11 15 21 12 9 7 6 7 6 6 8 5 8 12 18 19 25 27 28 26 22 22 27 23 22 17 12 8 7 6 5 8 7 6 7
1 11 9 14 4 12 13 9 7 10 10 16 12 9 7 7 8 8 9 6 4 5 9 16 23 21 20 28 26 29 27 26 23 21 17 11 8 7 7 8 6 8 10 7
5 4 8 18 17 9 24 9 12 10 6 5 7 8 8 7 6 6 9 2 8 4 12 23 21 16 22 30 27 31 32 27 25 25 24 21 18 15 11 4 4 7 8 8
12 12 8 12 10 3 11 9 9 20 10 4 4 5 6 5 5 6 5 4 6 3 17 19 18 26 26 32 36 33 19 30 30 26 27 23 20 16 14 12 4 2 3 1
Wind_Direction
228 246 248 254 226 221 281 41 20 338 128 265 315 242 164 162 192 167 171 174 177 183 180 169 202 186 196 177 174 181 197 197 194 206 205 218 238 244 229 244 264 229 238 261
236 231 258 276 114 325 285 96 13 252 268 241 222 21 358 161 188 195 187 172 178 190 175 172 192 193 196 178 184 183 190 195 194 205 218 227 234 254 239 217 242 248 249 254
232 241 240 276 288 270 255 347 177 226 243 115 51 356 349 333 309 204 182 187 179 185 184 185 188 199 201 182 180 184 191 199 202 211 223 227 249 270 277 266 260 247 249 266
248 243 266 235 253 244 279 183 297 287 261 270 50 357 322 318 313 206 211 191 193 176 186 174 193 201 202 193 180 188 192 196 204 207 226 220 218 234 247 241 231 256 276 290
245 238 252 259 268 228 267 300 324 289 297 69 82 153 247 253 264 272 203 194 199 177 180 174 193 198 208 192 186 186 193 194 203 203 212 232 217 251 260 154 90 332 307 299
252 271 247 247 261 246 272 297 287 269 247 30 324 259 239 232 224 249 232 207 195 183 183 174 187 182 198 194 191 186 187 189 194 199 213 226 257 230 326 137 325 293 292 306
251 241 258 265 256 262 237 254 275 276 76 213 231 199 330 212 237 235 185 194 189 185 188 178 187 177 185 186 181 184 169 172 179 192 205 215 228 211 194 208 260 294 269 235
225 240 222 230 248 253 237 244 265 263 170 234 90 122 231 236 232 93 142 162 191 184 179 201 179 188 182 180 175 182 158 160 167 187 198 199 196 170 206 184 238 214 213 155
259 251 241 206 230 235 256 262 252 271 301 312 149 234 224 348 28 349 125 137 164 188 171 180 182 182 183 188 177 179 145 152 165 179 181 170 168 193 170 152 162 140 196 99
260 282 289 209 205 225 239 271 268 247 266 286 170 171 177 230 115 203 211 172 154 161 173 171 197 179 194 197 201 165 141 152 163 162 162 168 178 182 174 159 133 90 123 71
234 256 273 261 188 235 219 241 263 281 91 288 285 220 159 140 202 212 141 147 156 158 170 164 181 179 177 183 177 160 144 153 160 149 168 167 163 167 163 160 138 136 126 124
230 244 253 263 231 210 252 233 235 249 236 226 260 34 179 180 209 144 145 140 152 158 160 169 163 159 175 184 146 149 148 145 155 151 149 150 154 169 166 154 133 143 135 127
256 219 256 266 246 207 218 246 255 249 267 280 131 265 278 157 111 53 124 132 145 151 152 160 165 163 149 140 124 128 136 151 152 152 154 163 165 176 150 142 140 136 132 121
301 267 229 247 253 251 210 227 247 255 249 259 226 227 225 39 132 126 126 140 154 154 163 163 157 148 141 125 127 134 144 151 153 159 162 158 163 144 149 145 144 138 127 121
248 251 257 259 268 277 271 223 231 240 261 265 274 140 114 33 107 213 159 159 166 172 180 171 158 152 155 145 146 157 153 162 166 150 143 141 131 137 134 137 124 119 103 90
227 245 257 260 266 267 269 269 230 221 244 262 272 279 169 160 216 183 161 162 176 176 186 181 169 170 170 163 161 158 156 159 149 143 138 144 140 133 132 141 136 124 108 103
317 249 234 245 243 251 259 251 262 259 227 238 255 262 253 299 267 279 156 166 176 180 183 194 177 180 182 176 173 162 159 154 152 151 140 139 144 150 148 147 140 130 116 100
337 301 256 248 254 240 257 248 236 249 268 222 239 252 283 323 318 302 339 18 177 175 180 190 184 175 180 181 177 169 162 158 154 145 144 152 157 153 156 148 137 120 113 102
161 238 266 243 242 252 246 228 253 215 240 256 260 247 97 34 344 292 31 10 355 169 172 176 178 174 180 178 169 163 163 159 156 148 152 157 161 156 156 149 135 123 112 100
251 240 211 237 244 249 359 342 258 237 207 78 69 53 60 59 275 32 349 3 339 230 176 171 167 175 178 169 161 163 163 161 162 159 154 155 158 159 155 141 121 109 100 97
338 288 226 227 246 273 333 2 325 202 16 68 80 67 51 47 15 347 348 329 305 276 168 162 167 180 169 162 161 166 168 170 164 150 146 155 145 145 145 134 131 123 126 109
337 325 1 340 214 227 354 1 50 318 348 9 36 70 55 44 352 358 2 335 305 165 145 155 169 167 154 162 163 165 167 153 133 131 142 152 158 168 160 151 142 148 147 186
349 263 301 349 279 292 296 358 144 86 53 327 341 32 15 13 15 346 333 325 277 168 157 178 160 140 152 164 159 160 133 129 131 131 134 142 148 105 128 153 148 163 200 230
211 353 319 342 42 353 296 259 231 197 170 204 301 329 6 11 355 10 345 323 235 183 167 135 144 149 147 161 154 145 134 133 128 124 127 125 121 136 174 191 197 224 241 238
131 60 347 306 267 183 246 302 333 322 346 10 343 340 352 348 350 359 322 352 310 194 128 143 149 152 132 129 127 128 135 141 143 146 148 156 169 182 206 219 87 104 69 48
166 159 183 223 251 347 225 151 75 299 295 314 318 343 7 344 345 305 302 351 325 316 141 146 139 117 115 114 116 119 144 169 168 163 163 166 175 185 185 202 202 121 120 27
Height
716 732 734 713 716 715 713 715 731 719 703 714 715 712 711 710 714 717 723 727 732 736 739 745 750 754 757 761 766 771 776 780 784 788 790 792 791 791 791 794 795 794 795 797
725 736 708 694 696 709 711 721 737 729 702 709 714 719 732 706 715 713 719 723 727 729 733 739 744 747 752 756 761 767 772 777 781 784 787 787 789 789 788 790 791 791 793 794
731 716 696 701 704 717 712 723 738 723 709 706 722 744 756 739 725 711 710 712 715 722 727 732 736 741 745 750 758 763 767 772 777 781 784 784 787 786 787 789 789 790 790 790
718 700 703 705 709 709 724 702 706 710 721 744 738 829 792 776 759 716 710 709 709 712 717 725 731 737 740 745 752 758 764 768 774 778 780 781 783 785 785 786 786 790 790 791
720 711 709 716 706 696 716 690 706 710 719 733 787 814 801 779 779 738 706 701 701 703 710 718 724 729 734 740 746 752 758 764 770 773 776 779 781 783 783 784 786 788 789 788
706 685 692 701 691 692 690 702 705 704 707 791 783 777 782 777 744 722 698 693 693 697 702 710 717 723 729 734 740 747 753 759 765 770 773 776 779 780 781 782 785 787 787 787
713 707 692 687 705 689 698 714 747 741 777 818 768 774 766 741 715 722 690 689 687 690 697 704 710 716 723 728 735 742 748 756 762 767 772 774 777 779 781 783 784 785 785 785
731 736 701 689 700 710 705 708 738 770 779 777 758 784 769 717 695 679 683 687 686 687 691 697 704 711 718 724 731 738 746 754 760 766 770 773 776 779 780 781 782 783 784 785
720 716 672 680 683 692 709 718 692 719 706 728 794 757 721 724 717 708 695 696 695 690 689 697 701 708 715 722 728 735 743 751 758 764 768 772 775 777 778 779 781 782 784 785
703 725 683 675 676 683 696 686 720 709 754 754 751 771 771 743 731 731 706 695 695 692 693 696 701 706 714 720 727 734 741 749 756 761 767 771 773 776 778 780 781 782 785 786
691 707 706 684 696 706 704 713 705 701 719 755 758 776 713 716 696 690 687 686 692 694 696 698 702 706 713 719 724 732 740 748 754 759 765 768 771 775 777 779 781 783 785 786
685 702 722 704 672 673 684 694 698 723 730 713 719 736 699 696 686 677 680 683 686 690 695 699 703 709 716 720 725 731 740 748 755 759 764 767 771 774 775 778 781 784 785 786
687 707 733 718 691 674 694 691 687 691 693 713 749 774 697 678 679 677 680 685 691 693 697 700 705 711 715 721 728 735 741 749 755 759 763 767 770 772 775 778 781 783 785 787
686 697 711 728 708 684 698 693 689 693 709 706 709 715 707 693 685 683 682 685 692 696 700 702 707 713 719 724 730 737 744 749 754 758 762 765 769 772 776 779 782 784 786 787
692 713 700 693 685 681 682 685 688 697 692 705 695 714 706 704 686 689 676 681 690 696 701 704 709 715 721 727 732 739 745 750 753 757 761 766 769 773 777 780 782 785 787 788
684 712 701 707 688 685 690 678 677 682 687 687 685 689 674 680 677 671 673 679 688 695 699 702 709 717 722 728 733 738 744 748 752 757 761 767 771 774 779 782 784 786 787 789
712 698 709 721 693 693 706 686 680 676 670 680 696 677 659 667 667 667 668 671 679 685 691 698 705 714 719 726 732 737 742 746 751 756 761 767 772 775 779 782 784 785 786 788
730 728 697 711 696 731 680 654 658 671 664 659 663 661 664 663 660 657 655 661 668 673 681 690 698 709 718 725 731 736 742 747 751 755 761 767 771 775 779 782 784 785 786 788
700 739 713 712 709 689 673 660 666 672 678 653 658 657 658 657 658 664 660 660 660 662 672 683 692 704 714 721 729 736 741 747 752 756 761 767 771 775 778 781 784 785 786 787
667 668 693 694 712 718 703 670 634 638 691 650 653 662 663 664 690 688 667 664 663 661 669 678 689 701 710 717 725 735 741 747 752 756 761 767 771 775 778 782 785 786 786 788
727 692 693 702 710 696 682 674 651 689 711 662 661 670 672 679 679 672 668 666 666 662 666 676 687 697 706 717 725 734 740 745 750 756 762 767 772 777 779 782 783 784 786 787
754 753 722 719 699 717 697 684 710 733 711 676 673 673 676 674 673 672 669 669 665 661 668 677 686 696 705 713 723 733 742 748 752 758 764 770 775 778 780 780 782 785 786 787
765 760 747 741 743 725 710 709 709 709 717 716 686 676 675 674 675 673 671 670 666 665 671 678 685 695 706 715 723 731 738 744 752 757 767 774 781 784 788 788 784 784 785 786
745 742 748 739 736 733 729 706 698 701 698 704 690 683 677 678 674 673 672 671 667 668 673 680 686 694 703 711 720 729 739 747 754 759 766 774 779 784 786 786 785 783 785 784
745 765 764 757 735 733 734 715 702 689 687 689 688 683 679 677 676 676 676 674 671 671 675 682 687 696 705 712 724 732 741 750 754 757 757 762 768 774 781 783 781 782 781 783
740 752 769 761 714 727 714 714 712 713 698 687 690 686 681 678 679 677 677 676 676 674 678 684 689 699 711 717 729 733 731 743 750 755 751 757 764 771 772 777 781 782 782 783